Location: Unspecified
(41.5000°N, 0.0000°E)
Time: 16:18:08
(UTC+00:00)

Vanguard 2 - Pass Details

Date: 25 June 2019
Orbit: 554 x 2938 km, 32.9° (Epoch: 21 August)

Event Time Altitude Azimuth Distance (km) Brightness Sun altitude
Rises 08:44:46 0° 249° (WSW) 3,045 10.2 45.2°
Reaches altitude 10° 08:46:53 10° 241° (WSW) 2,295 9.7 45.6°
Maximum altitude 08:51:52 40° 172° (S) 1,433 9.6 46.5°
Drops below altitude 10° 08:59:34 10° 106° (ESE) 3,565 11.9 48.0°
Sets 09:03:41 0° 101° (E) 4,972 12.3 48.7°
